Regional Weather Roundup
Issued by NWS Cleveland, OH

Home | Current Version | Previous Version | Graphics & Text | Print | Product List | Glossary On
Versions: 1 2 3 4 5 6 7 8 9 10 11 12 13 14 15 16 17 18 19 20 21 22 23 24 25 26 27 28 29 30 31 32 33 34 35 36 37 38 39 40 41 42 43 44 45 46 47 48 49 50
000
ASUS41 KCLE 231002
RWRCLE
OHIO REGIONAL WEATHER ROUNDUP
NATIONAL WEATHER SERVICE CLEVELAND, OH
500 AM EST SUN NOV 23 2014

NOTE: "FAIR" INDICATES FEW OR NO CLOUDS BELOW 12,000 FEET WITH NO
SIGNIFICANT WEATHER AND/OR OBSTRUCTIONS TO VISIBILITY.

OHZ001>008-015>018-024>027-034-035-043-044-231100-
   NORTHWEST OHIO

CITY           SKY/WX    TMP DP  RH WIND       PRES   REMARKS
DEFIANCE       CLOUDY    47  44  90 S7        29.95F
FINDLAY        LGT RAIN  46  42  86 S8        29.98F
TOLEDO EXPRESS LGT RAIN  45  43  93 S5        29.96F
TOLEDO EXEC    LGT RAIN  46  42  86 S9        29.98F
LIMA           CLOUDY    46  41  82 S10       29.97F
$$

OHZ009>014-019>023-028>033-038-089-231100-
   NORTHEAST OHIO

CITY           SKY/WX    TMP DP  RH WIND       PRES   REMARKS
CLE-HOPKINS    LGT RAIN  46  40  79 S10       30.05S
CLE-LAKEFRONT  LGT RAIN  49  39  68 S15       30.01S
CUY CO. ARPT   NOT AVBL
LORAIN-ELYRIA  LGT RAIN  45  41  86 SW9       30.02S
ASHTABULA      CLOUDY    44  33  65 S8        30.03S
AKRON-CANTON   LGT RAIN  45  35  68 S7        30.05S
WOOSTER        LGT RAIN N/A N/A N/A S7        30.05S
MANSFIELD      LGT RAIN  45  40  82 S12       30.03S
YOUNGSTOWN     CLOUDY    48  34  58 S7        30.04F
$$

OHZ042-051>053-060>062-070>072-077>081-231100-
  SOUTHWEST OHIO

CITY           SKY/WX    TMP DP  RH WIND       PRES   REMARKS
CINC-COVINGTON CLOUDY    51  37  58 S10       30.01F
CINC-LUNKEN    CLOUDY    45  38  76 CALM      30.03F
HAMILTON       CLOUDY    50  37  61 SE3       30.02F
DAYTON         CLOUDY    50  37  61 S10       30.00F
WRIGHT-PAT AFB CLOUDY    50  38  62 SE5       30.01F
DAYTON GENERAL CLOUDY    50  38  63 S9        30.00F
WILMINGTON     CLOUDY    48  35  60 S9        30.03S
$$

OHZ036-037-039>041-045>050-054>059-063>069-073>076-082>088-231100-
  CENTRAL AND SOUTHEAST OHIO

CITY           SKY/WX    TMP DP  RH WIND       PRES   REMARKS
COLUMBUS       CLOUDY    46  35  65 S3        30.04F
OSU AIRPORT    CLOUDY    47  36  65 S7        30.03F
BOLTON FIELD   NOT AVBL
RICKENBACK AFB NOT AVBL
NEWARK         CLOUDY    41  35  79 CALM      30.04F
MARION         LGT RAIN  44  40  85 S9        30.02F FOG
LANCASTER      CLOUDY    49  32  52 S3        30.05F
ZANESVILLE     MOCLDY    44  30  57 SE6       30.07S
NEW PHILLY     CLOUDY    47  33  58 SE6       30.07F
$$


USA.gov is the U.S. government's official web portal to all federal, state and local government web resources and services.